Wind_Speed
20 22 24 26 27 29 31 32 33 35 36 36 38 38 39 38 37 37 37 36 35 35 34 34 33 33 33 32 31 31 30 30 29 27 27 27 26 25 25 24 23 23 23 22
19 22 24 26 28 30 32 34 35 37 38 38 39 40 40 40 40 40 39 38 37 36 36 35 35 35 35 35 35 35 34 33 32 30 30 30 30 29 29 28 27 25 25 24
19 21 23 26 28 30 32 34 36 38 39 39 40 40 40 39 39 39 38 37 37 35 35 35 35 35 36 36 36 37 36 36 35 34 34 35 34 34 34 32 30 27 27 26
17 20 23 26 29 31 34 35 37 38 38 39 39 38 40 37 36 35 35 34 33 33 33 33 33 34 34 35 37 38 39 39 38 38 38 38 37 38 37 35 32 30 27 26
18 22 25 28 31 32 35 37 38 39 39 39 39 38 38 35 34 33 32 32 31 31 31 32 32 33 35 36 36 37 39 40 40 41 41 41 40 41 40 39 34 31 29 27
21 24 26 29 31 33 35 36 37 38 38 39 36 35 36 34 31 30 30 30 30 30 31 31 32 34 35 36 37 38 39 40 41 42 43 43 42 43 43 40 36 32 29 26
23 25 26 29 32 34 35 35 35 34 32 31 31 31 33 31 28 28 27 27 27 28 29 30 31 32 33 35 36 36 37 39 41 42 42 42 43 41 40 39 36 32 28 25
23 24 25 28 29 31 31 31 29 27 25 23 23 24 26 25 25 24 24 24 24 25 26 27 28 30 31 31 33 34 34 35 37 39 41 41 41 40 39 36 33 28 23 21
21 23 26 27 28 28 28 25 22 19 17 18 18 19 20 20 20 20 20 21 21 23 24 25 26 27 28 28 28 29 31 32 33 35 37 38 36 35 32 30 27 23 19 17
22 24 26 27 27 26 23 20 16 12 9 9 12 13 12 13 14 14 15 17 18 19 20 20 21 22 22 23 22 23 25 26 26 26 28 29 28 26 25 22 19 16 14 13
24 25 26 26 25 24 20 16 13 8 3 2 3 5 5 5 7 8 10 12 13 13 13 14 14 15 16 17 17 16 18 19 19 20 21 20 19 18 17 14 11 10 10 12
24 25 26 26 24 22 19 17 13 10 7 4 3 2 1 1 2 4 5 5 6 7 7 8 8 8 9 10 10 10 10 12 12 12 12 11 11 11 10 9 8 9 12 14
25 25 26 27 26 23 20 18 15 13 11 8 7 6 4 3 3 2 3 2 2 3 2 1 2 3 4 4 4 4 5 5 5 6 6 6 6 7 7 7 8 10 13 15
25 25 26 26 25 24 22 20 18 16 14 13 11 9 9 8 8 8 9 9 8 7 6 5 5 4 4 3 2 2 2 2 2 2 2 3 4 5 7 8 10 12 13 15
24 25 25 25 25 24 23 22 19 17 16 15 14 13 13 13 13 13 13 13 12 11 10 9 10 9 8 6 5 4 3 2 1 2 3 4 6 7 8 10 11 13 14 15
23 24 24 24 23 22 22 21 20 18 17 17 17 16 16 15 15 15 16 16 15 14 13 12 12 11 9 8 7 6 5 3 3 4 5 7 8 9 10 11 13 14 15 16
23 23 23 23 21 21 21 20 18 16 16 15 15 15 15 15 16 17 17 16 16 15 14 13 13 12 11 9 8 7 7 6 6 6 7 8 10 11 12 14 14 15 16 17
22 22 22 22 20 20 19 19 18 16 15 15 15 14 15 16 16 16 16 16 15 15 15 14 13 12 11 10 9 8 8 7 8 8 9 10 12 13 14 15 16 17 17 18
22 22 22 21 20 18 17 17 16 16 15 15 15 14 15 15 15 15 15 15 15 15 14 13 13 12 11 11 11 10 10 10 10 10 11 12 13 14 15 16 17 18 18 19
22 21 21 20 19 18 16 15 15 14 15 14 14 14 14 14 15 14 14 14 14 14 14 13 13 13 12 12 12 12 11 11 11 12 12 13 13 14 14 15 15 16 17 18
21 21 21 20 19 17 15 14 13 13 13 12 11 11 12 13 13 13 13 13 13 14 14 14 14 14 13 13 13 13 12 12 12 12 12 12 12 13 13 13 14 15 16 16
20 21 21 20 19 17 14 13 12 11 11 11 10 10 10 10 11 11 11 12 13 14 14 15 15 14 15 15 14 14 13 13 13 13 12 12 12 12 12 12 13 13 13 14
19 20 20 20 19 18 16 12 11 10 10 10 9 9 9 9 9 10 11 12 13 14 15 15 15 16 16 16 15 15 15 15 14 14 14 13 13 12 12 12 11 11 11 11
17 18 19 20 19 18 17 14 11 9 9 8 8 8 7 7 8 8 9 11 12 13 14 15 16 16 17 17 16 16 16 16 16 16 15 15 14 13 13 13 12 11 11 10
15 16 18 19 19 19 18 15 12 10 9 8 7 7 7 7 7 7 8 10 11 13 14 15 16 16 17 17 17 17 17 17 17 17 17 16 16 15 15 14 13 13 12 11
13 14 16 18 19 19 18 16 13 11 10 9 7 5 6 6 6 6 7 9 10 12 13 14 15 16 16 17 17 18 17 17 17 17 17 17 17 16 16 15 15 14 14 13
Wind_Direction
256 260 262 264 265 266 267 267 267 267 267 267 266 267 268 268 268 268 267 267 267 267 267 267 268 269 270 270 269 271 271 275 275 274 274 273 271 270 268 265 260 256 254 253
266 268 270 271 271 271 270 270 270 270 270 269 269 269 269 269 269 269 269 268 267 267 266 266 266 266 266 266 266 266 266 268 269 269 271 271 270 269 267 263 259 258 255 253
274 278 279 278 278 277 276 274 274 273 273 272 272 272 270 270 270 270 270 269 268 267 266 267 266 265 264 263 263 263 263 263 263 264 267 268 268 267 266 264 261 260 256 253
289 290 289 287 285 284 281 280 278 276 275 274 273 274 273 271 271 271 270 269 268 267 266 265 265 264 264 263 261 260 259 259 259 260 264 266 264 264 264 262 261 261 256 253
304 300 297 295 293 290 287 285 281 277 275 273 273 272 272 271 270 269 269 269 269 268 267 266 265 264 263 262 262 260 257 255 256 258 260 262 261 262 262 262 259 259 256 256
311 310 308 305 301 297 294 291 286 281 277 272 270 269 268 268 267 267 267 267 267 269 268 267 266 265 263 262 261 259 257 255 255 255 257 259 260 261 262 262 261 258 256 254
323 321 318 313 309 305 300 297 293 288 281 274 268 264 262 264 262 262 263 264 265 266 267 268 269 268 265 262 260 259 257 255 255 256 258 258 261 260 262 263 261 259 256 252
334 331 328 323 317 312 308 304 298 290 280 270 264 259 259 257 257 257 257 259 260 263 265 268 268 267 266 264 262 259 257 256 256 255 257 259 260 262 264 264 260 255 250 249
346 341 337 333 328 323 320 316 307 295 283 268 259 257 259 256 253 252 254 256 258 261 265 267 266 266 265 264 263 259 256 256 256 256 257 257 260 260 261 260 253 248 246 248
354 347 344 342 340 338 335 334 329 316 295 269 254 249 258 255 253 256 259 259 259 262 265 265 264 264 264 262 262 257 255 254 254 255 257 258 257 254 256 252 245 243 244 244
0 357 355 354 353 352 354 357 360 1 351 249 242 258 251 247 252 260 264 263 261 263 262 261 261 261 259 256 258 257 251 250 251 251 252 252 246 242 239 231 233 237 242 246
6 7 8 8 8 10 14 23 32 43 60 88 87 62 210 282 278 276 277 268 256 259 257 256 259 258 253 248 247 249 245 245 243 243 239 230 229 224 218 223 233 245 251 256
13 17 18 19 20 22 29 38 48 54 62 73 76 63 54 49 47 71 64 71 115 111 130 168 192 208 208 212 223 221 215 214 215 216 211 212 217 224 235 249 260 265 265 265
20 23 25 26 28 33 40 46 53 59 64 68 67 64 65 68 64 72 74 81 85 84 83 86 94 105 124 132 134 132 138 151 176 200 206 233 254 266 273 273 275 278 276 270
23 25 28 30 35 40 46 50 55 60 65 66 65 67 67 68 66 68 65 67 72 71 73 74 75 82 83 75 74 74 67 57 358 311 293 296 291 288 288 285 282 280 279 276
26 27 29 32 36 41 47 49 53 56 59 60 63 65 65 67 65 65 65 64 65 68 69 69 64 62 60 57 52 49 38 21 353 334 320 311 303 297 291 289 286 284 282 278
26 28 28 30 34 40 42 45 49 52 56 59 60 61 60 62 64 64 65 64 64 64 64 63 60 55 51 46 39 28 17 5 351 334 322 310 302 295 291 289 287 285 283 280
25 26 26 28 31 38 39 44 48 52 55 58 61 62 62 64 66 65 64 62 60 60 59 56 52 48 43 38 31 22 10 357 343 331 321 313 306 300 296 292 289 286 284 283
25 25 25 26 30 34 37 40 45 48 51 54 60 65 66 67 65 63 60 57 55 52 49 45 40 36 32 27 20 12 3 353 343 333 324 316 310 304 299 294 291 289 286 283
24 23 24 25 27 31 33 39 43 46 50 52 58 63 63 61 59 57 54 50 47 44 40 37 33 29 24 19 13 8 1 354 347 339 331 324 316 309 304 300 296 292 289 286
24 23 22 23 24 27 29 35 38 43 45 48 52 57 56 56 54 51 48 44 41 38 34 31 28 25 23 20 16 11 6 360 354 347 341 334 327 321 314 309 305 301 297 293
21 22 22 21 22 23 23 28 31 35 39 43 48 51 51 51 46 45 44 41 38 34 31 28 26 26 23 21 18 16 13 9 5 359 354 350 345 338 331 325 319 313 308 303
19 20 20 20 20 19 20 22 24 28 34 39 45 47 45 43 42 42 40 37 34 32 30 29 29 28 26 26 26 24 21 19 17 15 12 8 3 359 354 348 342 335 329 322
15 18 19 19 17 16 18 20 21 24 29 34 36 37 37 37 38 38 36 35 33 32 32 31 31 31 31 32 31 30 30 29 28 26 24 21 19 16 13 9 5 360 354 346
8 12 16 17 17 17 16 18 20 20 22 23 24 26 29 31 33 33 33 32 32 31 32 32 33 33 34 35 35 35 34 34 34 32 31 29 28 26 23 22 21 18 15 11
359 5 10 13 15 16 16 17 19 21 20 19 21 25 28 29 32 32 29 29 29 30 31 32 34 35 36 37 37 37 36 36 35 34 34 32 31 31 30 29 29 27 26 24
Height
5881 5881 5880 5879 5879 5878 5877 5875 5874 5872 5871 5870 5869 5868 5868 5868 5868 5868 5868 5869 5869 5869 5869 5869 5870 5870 5870 5870 5870 5870 5870 5869 5869 5868 5867 5866 5865 5865 5865 5865 5865 5865 5866 5866
5879 5877 5876 5874 5873 5871 5869 5868 5866 5863 5862 5861 5860 5859 5859 5858 5858 5858 5858 5859 5860 5860 5861 5861 5862 5862 5862 5862 5862 5862 5862 5862 5862 5861 5860 5859 5858 5858 5857 5857 5857 5858 5860 5860
5874 5873 5870 5868 5866 5864 5861 5859 5857 5855 5853 5851 5851 5850 5849 5848 5848 5848 5848 5849 5850 5851 5851 5852 5852 5853 5853 5853 5854 5854 5854 5854 5854 5854 5853 5852 5851 5850 5849 5849 5850 5851 5853 5854
5870 5868 5865 5862 5859 5856 5852 5850 5847 5844 5843 5841 5841 5840 5838 5839 5838 5838 5838 5839 5840 5841 5842 5843 5843 5843 5844 5844 5845 5845 5846 5846 5846 5846 5846 5845 5843 5843 5841 5841 5842 5844 5845 5847
5866 5862 5859 5855 5851 5847 5843 5839 5836 5833 5831 5830 5830 5830 5829 5829 5828 5829 5829 5830 5831 5832 5833 5833 5834 5834 5834 5835 5835 5836 5836 5836 5837 5838 5838 5838 5836 5835 5833 5833 5834 5835 5838 5840
5861 5857 5852 5847 5842 5837 5832 5828 5824 5821 5819 5819 5819 5820 5818 5818 5819 5819 5820 5820 5821 5822 5823 5823 5824 5824 5824 5825 5825 5826 5826 5827 5828 5829 5829 5830 5829 5828 5826 5826 5827 5828 5829 5831
5855 5851 5845 5839 5833 5827 5822 5817 5813 5810 5808 5808 5808 5808 5807 5808 5809 5810 5811 5811 5812 5813 5813 5814 5814 5814 5814 5814 5815 5816 5817 5818 5819 5820 5821 5821 5821 5821 5820 5821 5820 5821 5822 5824
5850 5845 5839 5832 5826 5819 5812 5807 5803 5800 5798 5798 5797 5798 5798 5799 5800 5801 5802 5803 5804 5804 5805 5805 5805 5805 5805 5805 5806 5807 5808 5809 5810 5812 5813 5813 5813 5813 5814 5814 5815 5815 5816 5818
5846 5840 5833 5826 5818 5812 5804 5798 5793 5790 5789 5789 5790 5791 5791 5792 5793 5794 5795 5796 5797 5797 5797 5797 5797 5796 5796 5797 5798 5798 5799 5801 5802 5803 5804 5805 5805 5806 5807 5808 5808 5810 5811 5812
5843 5836 5829 5821 5813 5805 5799 5792 5788 5785 5784 5784 5786 5786 5787 5787 5788 5789 5790 5790 5790 5791 5790 5790 5790 5789 5789 5790 5791 5791 5792 5794 5795 5796 5797 5797 5798 5799 5801 5802 5803 5804 5806 5808
5840 5834 5827 5818 5810 5803 5796 5790 5785 5783 5782 5783 5784 5786 5784 5785 5785 5786 5786 5785 5785 5785 5785 5785 5784 5784 5784 5785 5786 5786 5787 5788 5789 5790 5791 5792 5793 5794 5796 5797 5799 5801 5803 5804
5839 5833 5825 5818 5810 5802 5796 5791 5787 5785 5783 5783 5783 5787 5783 5784 5784 5784 5783 5782 5782 5782 5782 5781 5781 5780 5781 5781 5782 5782 5783 5784 5785 5786 5788 5789 5790 5791 5792 5794 5795 5797 5799 5800
5839 5833 5826 5819 5813 5806 5799 5793 5790 5788 5786 5786 5785 5788 5785 5784 5784 5783 5782 5781 5780 5780 5780 5779 5779 5778 5778 5779 5780 5781 5781 5783 5784 5785 5786 5787 5788 5789 5790 5791 5792 5793 5794 5795
5839 5834 5829 5823 5816 5808 5802 5798 5795 5793 5791 5790 5789 5789 5787 5787 5785 5784 5782 5781 5781 5781 5780 5780 5779 5778 5779 5779 5780 5780 5781 5782 5783 5784 5784 5785 5786 5787 5787 5788 5789 5789 5789 5789
5841 5836 5830 5825 5819 5813 5808 5804 5800 5798 5796 5795 5794 5792 5791 5790 5788 5787 5785 5784 5783 5782 5782 5781 5781 5781 5781 5781 5781 5781 5781 5782 5782 5783 5783 5784 5784 5785 5785 5785 5785 5785 5785 5784
5842 5838 5832 5828 5822 5818 5813 5810 5806 5804 5801 5800 5798 5797 5795 5794 5792 5791 5789 5788 5787 5787 5786 5785 5784 5784 5783 5783 5783 5782 5782 5782 5782 5782 5782 5782 5782 5782 5782 5781 5781 5781 5780 5779
5844 5840 5835 5831 5826 5822 5818 5815 5811 5809 5807 5805 5803 5802 5800 5799 5797 5795 5794 5793 5792 5791 5790 5789 5788 5787 5786 5785 5785 5784 5783 5783 5782 5782 5781 5781 5780 5780 5779 5778 5777 5776 5775 5774
5846 5842 5838 5833 5830 5826 5825 5819 5816 5813 5811 5809 5807 5806 5804 5803 5802 5801 5799 5798 5797 5796 5795 5793 5792 5790 5789 5788 5787 5785 5784 5783 5782 5781 5780 5779 5777 5776 5775 5774 5773 5771 5770 5769
5848 5844 5840 5836 5832 5829 5826 5822 5819 5817 5815 5813 5812 5810 5809 5807 5806 5805 5804 5802 5801 5799 5798 5796 5795 5793 5791 5790 5788 5786 5784 5783 5781 5780 5778 5776 5774 5773 5771 5770 5768 5767 5765 5764
5850 5846 5843 5838 5835 5831 5829 5825 5822 5821 5818 5817 5815 5814 5812 5811 5810 5809 5807 5805 5804 5802 5800 5798 5797 5795 5793 5791 5788 5786 5784 5782 5780 5778 5776 5774 5772 5770 5768 5766 5764 5762 5761 5759
5853 5849 5845 5841 5837 5834 5831 5828 5826 5825 5823 5820 5818 5816 5815 5814 5813 5812 5810 5808 5806 5805 5802 5800 5798 5796 5794 5791 5789 5786 5784 5781 5779 5776 5774 5771 5769 5767 5764 5762 5760 5758 5756 5754
5854 5851 5847 5843 5839 5838 5832 5829 5828 5827 5824 5822 5820 5819 5817 5816 5815 5814 5812 5810 5809 5806 5804 5802 5800 5797 5795 5792 5789 5787 5784 5781 5778 5775 5772 5770 5767 5764 5762 5759 5757 5755 5752 5750
5856 5853 5849 5846 5844 5838 5834 5831 5829 5827 5825 5823 5822 5821 5819 5818 5817 5816 5814 5812 5810 5808 5806 5804 5801 5799 5796 5793 5790 5787 5784 5781 5778 5775 5772 5769 5766 5763 5761 5758 5755 5753 5750 5748
5857 5854 5850 5847 5843 5839 5835 5832 5830 5828 5826 5824 5823 5822 5821 5820 5819 5817 5816 5814 5812 5811 5808 5806 5803 5801 5798 5795 5792 5789 5786 5783 5779 5776 5773 5770 5767 5764 5761 5758 5755 5752 5749 5747
5858 5855 5852 5848 5845 5840 5836 5833 5830 5828 5826 5825 5824 5822 5822 5821 5820 5819 5817 5816 5814 5812 5810 5808 5805 5803 5800 5797 5794 5791 5788 5785 5781 5778 5775 5772 5768 5765 5762 5759 5756 5753 5750 5747
5858 5856 5853 5850 5846 5842 5839 5835 5831 5829 5827 5825 5824 5823 5822 5821 5821 5820 5819 5817 5816 5814 5812 5810 5808 5805 5802 5799 5796 5793 5790 5787 5784 5781 5777 5774 5771 5767 5764 5761 5758 5754 5751 5748